CEST,Max TemperatureF,Mean TemperatureF,Min TemperatureF,Max Dew PointF,MeanDew PointF,Min DewpointF,Max Humidity, Mean Humidity, Min Humidity, Max Sea Level PressureIn, Mean Sea Level PressureIn, Min Sea Level PressureIn, Max VisibilityMiles, Mean VisibilityMiles, Min VisibilityMiles, Max Wind SpeedMPH, Mean Wind SpeedMPH, Max Gust SpeedMPH,PrecipitationIn, CloudCover, Events, WindDirDegrees
2013-9-1,73,64,55,59,53,46,88,68,43,30.21,30.13,30.09,6,6,6,20,7,34,0.00,4,,314
2013-9-2,69,60,51,52,47,43,94,60,40,30.24,30.21,30.15,6,6,6,18,6,29,0.00,5,,289
2013-9-3,71,65,59,59,54,41,94,68,42,30.27,30.19,30.12,6,6,6,22,9,34,0.00,7,Rain,284
2013-9-4,75,62,50,59,54,50,100,77,44,30.33,30.27,30.21,6,5,2,9,3,,0.00,2,Fog,339
2013-9-5,77,64,50,57,52,50,100,72,39,30.18,30.10,30.04,6,6,6,9,2,,0.00,2,,43
2013-9-6,78,64,51,55,50,48,100,62,36,30.06,30.02,29.98,,,,9,4,,0.00,,,139
2013-9-7,78,64,51,54,49,45,88,57,34,30.15,30.10,30.04,,,,11,6,,0.00,,,161
2013-9-8,80,66,51,52,46,41,88,52,24,30.18,30.14,30.09,,,,20,6,,0.00,,,160
2013-9-9,69,64,59,59,52,41,100,68,35,30.12,30.06,29.98,6,6,5,13,8,,0.00,7,Rain,164
2013-9-10,75,64,53,59,56,54,100,78,47,30.12,30.03,29.92,6,6,5,29,5,42,0.00,5,Rain-Thunderstorm,165
2013-9-11,66,60,53,55,52,45,100,79,49,30.01,29.99,29.98,6,6,5,16,9,27,0.00,7,Rain,335
2013-9-12,69,61,53,54,51,45,100,77,43,30.01,29.97,29.92,6,6,6,13,4,27,0.00,6,Rain-Thunderstorm,238
2013-9-13,60,53,46,54,50,45,100,85,63,30.06,30.05,30.01,6,6,6,18,7,27,0.00,4,Rain,296
2013-9-14,64,58,51,59,53,50,100,90,72,30.06,29.99,29.95,6,6,4,11,5,,0.00,7,Rain,196
2013-9-15,71,60,48,61,55,48,100,83,53,29.98,29.88,29.74,6,5,4,13,4,,0.00,6,,153
2013-9-16,73,64,55,59,57,54,100,84,53,29.74,29.69,29.53,6,4,0,13,4,,0.00,4,Fog-Rain,122
2013-9-17,60,54,46,59,49,43,100,89,71,29.77,29.62,29.50,6,6,3,25,10,36,0.00,8,Rain,321
2013-9-18,60,51,42,54,48,43,100,84,63,29.74,29.63,29.56,6,6,6,16,8,25,0.00,7,Rain,195
2013-9-19,62,56,50,54,48,39,100,77,48,29.98,29.80,29.59,6,6,6,22,9,34,0.00,6,Rain,309
2013-9-20,64,53,42,54,48,41,100,84,55,30.09,30.03,29.98,6,6,6,9,4,,0.00,6,Rain,194
2013-9-21,66,58,51,54,51,50,100,79,56,30.30,30.18,30.09,6,6,6,18,8,29,0.00,5,,306
2013-9-22,64,53,42,52,48,43,100,84,52,30.33,30.29,30.24,6,5,2,13,6,,0.00,4,,328
2013-9-23,69,60,51,54,51,50,94,70,52,30.21,30.12,30.06,6,6,6,29,10,40,0.00,5,,298
2013-9-24,69,58,48,52,50,48,100,66,46,30.04,29.99,29.95,6,6,6,18,9,29,0.00,5,,309
2013-9-25,69,56,42,55,51,43,100,82,56,30.01,29.94,29.89,6,6,5,7,2,,0.00,3,,172
2013-9-26,73,63,53,61,57,52,100,86,60,29.98,29.88,29.83,6,5,3,13,6,,0.00,6,Rain,252
2013-9-27,53,50,44,52,46,43,100,82,71,30.09,30.05,29.98,6,6,4,9,4,,0.00,6,,351
2013-9-28,60,48,37,52,43,37,100,83,45,30.06,30.02,29.95,6,3,0,4,1,,0.00,5,Fog,120
2013-9-29,55,52,48,52,47,43,100,86,67,30.01,29.96,29.92,6,5,2,9,3,,0.00,7,Rain,25
2013-9-30,57,52,46,50,46,45,100,86,63,29.92,29.85,29.80,6,6,2,9,5,,0.00,8,Rain,17